Overview Statistics Trail Chart Weather Telemetry Raw packets
 

This is the latest recevied weather packets stored in our database for station/object W0AKY-13. If no packets are shown the sender has not sent any weather packets the latest 10 day(s).

<< 47 48 49 50 51 52 53 >>
Time Temp. Humidity Pressure Rain* Wind** Luminosity Snow
1788268210 22.78° C 84% 1015.7 hPa 0 mm - 20 W/m² -
1788267905 22.22° C 85% 1015.8 hPa 0 mm - 19 W/m² -
1788267603 22.22° C 86% 1015.6 hPa 0 mm - 18 W/m² -
1788267303 21.67° C 88% 1015.5 hPa 0 mm - 18 W/m² -
1788267003 21.67° C 90% 1015.6 hPa 0 mm - 17 W/m² -
1788266698 21.11° C 91% 1015.6 hPa 0 mm - 16 W/m² -
1788266393 21.11° C 92% 1015.5 hPa 0 mm - 15 W/m² -
1788266088 20.56° C 94% 1015.7 hPa 0 mm - 13 W/m² -
1788265786 20.56° C 97% 1015.5 hPa 0 mm - 12 W/m² -
1788265485 20° C 99% 1015.3 hPa 0 mm - 10 W/m² -
1788265185 20.56° C 99% 1015.3 hPa 0 mm - 8 W/m² -
1788264879 20.56° C 99% 1015.3 hPa 0 mm - 6 W/m² -
1788264574 20.56° C 99% 1015.2 hPa 0 mm - 5 W/m² -
1788264269 20.56° C 99% 1015 hPa 0 mm - 3 W/m² -
1788263965 20.56° C 99% 1015.1 hPa 0 mm - 2 W/m² -
1788263664 20.56° C 99% 1015.2 hPa 0 mm - 1 W/m² -
1788263362 20.56° C 99% 1015.2 hPa 0 mm - 1 W/m² -
1788262756 21.11° C 99% 1015.2 hPa 0 mm - 0 W/m² -
1788262455 21.11° C 99% 1015 hPa 0 mm - 0 W/m² -
1788262150 21.11° C 99% 1015.2 hPa 0 mm - 0 W/m² -
1788261846 21.11° C 99% 1015 hPa 0 mm - 0 W/m² -
1788261546 21.11° C 99% 1015.2 hPa 0 mm - 0 W/m² -
1788261244 21.11° C 99% 1015 hPa 0 mm - 0 W/m² -
1788260943 21.11° C 99% 1015.1 hPa 0 mm - 0 W/m² -
1788260639 21.11° C 99% 1015.3 hPa 0 mm - 0 W/m² -

* Rain latest hour (hover to see other rain measurements)
** Current wind speed in m/s (hover to see current wind gust speed)